IRIDIUM 76 [B]

Last updated on Wed Aug 08 2018 00:20:46 GMT+0000 (Coordinated Universal Time)

1 25432U 98048B 18219.74434784 .00000085 00000-0 21369-4 0 9995 2 25432 86.4230 81.4511 0002590 90.6904 269.4591 14.38605441 45365
UTC large
Height (km)
Speed (km/s)
/
Latitude / Longitude
Inclination (degrees)
Orbital Period (minutes)
Azimuth
Elevation
Range (km)
Doppler Factor

Next 0 passes for location: London (51.5072 / 0.1276)

Sorry there are no passes over London.